• In Romania
  • List of Countries
  • For 7 days
  • Water Temperature
  • Satellite Maps
  • Weather Map
  • Weather Widgets
  • user-avatar
    Login

    Hourly Weather Ondjiwa

    Today, 26 April, Wednesday

    Time Temperature Precipitation Wind Pressure Humidity
    00:00 +20°C° 0 mm 2 mps 667 mmHg 60%
    01:00 +19°C° 0 mm 2 mps 667 mmHg 63%
    02:00 +19°C° 0 mm 2 mps 667 mmHg 66%
    03:00 +18°C° 0 mm 2 mps 667 mmHg 68%
    04:00 +18°C° 0 mm 2 mps 667 mmHg 70%
    05:00 +18°C° 0 mm 3 mps 668 mmHg 71%
    06:00 +18°C° 0 mm 3 mps 668 mmHg 71%
    07:00 +18°C° 0 mm 3 mps 668 mmHg 71%
    08:00 +21°C° 0 mm 3 mps 669 mmHg 62%
    09:00 +25°C° 0 mm 4 mps 670 mmHg 53%
    10:00 +28°C° 0 mm 5 mps 670 mmHg 45%
    11:00 +28°C° 0 mm 4 mps 670 mmHg 42%
    12:00 +29°C° 0 mm 4 mps 669 mmHg 40%
    13:00 +30°C° 0 mm 3 mps 668 mmHg 38%
    14:00 +30°C° 0 mm 3 mps 668 mmHg 37%
    15:00 +30°C° 0 mm 3 mps 668 mmHg 37%
    16:00 +30°C° 0 mm 3 mps 667 mmHg 37%
    17:00 +28°C° 0 mm 3 mps 667 mmHg 41%
    18:00 +27°C° 0 mm 3 mps 667 mmHg 45%
    19:00 +25°C° 0 mm 3 mps 667 mmHg 49%
    20:00 +24°C° 0 mm 3 mps 667 mmHg 51%
    21:00 +24°C° 0 mm 3 mps 668 mmHg 52%
    22:00 +22°C° 0 mm 3 mps 668 mmHg 54%
    23:00 +22°C° 0 mm 3 mps 668 mmHg 55%

    Tomorrow, 27 April, Thursday

    Time Temperature Precipitation Wind Pressure Humidity
    00:00 +21°C° 0 mm 3 mps 668 mmHg 56%
    01:00 +21°C° 0 mm 3 mps 667 mmHg 58%
    02:00 +20°C° 0 mm 2 mps 667 mmHg 58%
    03:00 +20°C° 0 mm 2 mps 667 mmHg 59%
    04:00 +20°C° 0 mm 2 mps 667 mmHg 59%
    05:00 +20°C° 0 mm 2 mps 668 mmHg 60%
    06:00 +20°C° 0 mm 2 mps 668 mmHg 60%
    07:00 +20°C° 0 mm 2 mps 668 mmHg 60%
    08:00 +22°C° 0 mm 3 mps 669 mmHg 52%
    09:00 +26°C° 0 mm 4 mps 670 mmHg 45%
    10:00 +28°C° 0 mm 5 mps 671 mmHg 37%
    11:00 +30°C° 0 mm 5 mps 670 mmHg 34%
    12:00 +32°C° 0 mm 5 mps 670 mmHg 32%
    13:00 +33°C° 0 mm 4 mps 669 mmHg 30%
    14:00 +33°C° 0 mm 4 mps 669 mmHg 30%
    15:00 +33°C° 0 mm 3 mps 668 mmHg 31%
    16:00 +31°C° 0 mm 3 mps 668 mmHg 32%
    17:00 +30°C° 0 mm 3 mps 668 mmHg 36%
    18:00 +28°C° 0 mm 3 mps 668 mmHg 40%
    19:00 +26°C° 0 mm 2 mps 668 mmHg 45%
    20:00 +25°C° 0 mm 2 mps 668 mmHg 47%
    21:00 +25°C° 0 mm 3 mps 668 mmHg 48%
    22:00 +24°C° 0 mm 3 mps 669 mmHg 50%
    23:00 +24°C° 0 mm 3 mps 669 mmHg 51%

    Day after tomorrow, 28 April, Friday

    Time Temperature Precipitation Wind Pressure Humidity
    00:00 +24°C° 0 mm 3 mps 668 mmHg 51%
    01:00 +24°C° 0 mm 3 mps 668 mmHg 52%
    02:00 +22°C° 0 mm 3 mps 668 mmHg 53%
    03:00 +22°C° 0 mm 3 mps 668 mmHg 54%
    04:00 +21°C° 0 mm 3 mps 668 mmHg 56%
    05:00 +21°C° 0 mm 3 mps 668 mmHg 57%
    06:00 +21°C° 0 mm 3 mps 669 mmHg 58%
    07:00 +21°C° 0 mm 3 mps 669 mmHg 59%
    08:00 +24°C° 0 mm 3 mps 670 mmHg 52%
    09:00 +26°C° 0 mm 4 mps 671 mmHg 45%
    10:00 +28°C° 0 mm 5 mps 672 mmHg 39%
    11:00 +30°C° 0 mm 5 mps 671 mmHg 35%
    12:00 +32°C° 0 mm 4 mps 670 mmHg 32%
    13:00 +33°C° 0 mm 4 mps 670 mmHg 28%
    14:00 +33°C° 0 mm 3 mps 669 mmHg 29%
    15:00 +33°C° 0 mm 3 mps 669 mmHg 30%
    16:00 +31°C° 0 mm 2 mps 669 mmHg 31%
    17:00 +30°C° 0 mm 2 mps 669 mmHg 33%
    18:00 +29°C° 0 mm 2 mps 669 mmHg 36%
    19:00 +27°C° 0 mm 2 mps 669 mmHg 38%
    20:00 +27°C° 0 mm 2 mps 669 mmHg 40%
    21:00 +26°C° 0 mm 2 mps 670 mmHg 41%
    22:00 +25°C° 0 mm 3 mps 670 mmHg 42%
    23:00 +24°C° 0 mm 3 mps 670 mmHg 44%

    29 April, Saturday

    Time Temperature Precipitation Wind Pressure Humidity
    00:00 +23°C° 0 mm 4 mps 670 mmHg 45%
    01:00 +22°C° 0 mm 4 mps 669 mmHg 46%
    02:00 +21°C° 0 mm 4 mps 669 mmHg 50%
    03:00 +21°C° 0 mm 4 mps 669 mmHg 54%
    04:00 +20°C° 0 mm 4 mps 669 mmHg 58%
    05:00 +20°C° 0 mm 4 mps 670 mmHg 60%
    06:00 +20°C° 0 mm 4 mps 670 mmHg 61%
    07:00 +20°C° 0 mm 4 mps 671 mmHg 62%
    08:00 +22°C° 0 mm 5 mps 671 mmHg 55%
    09:00 +26°C° 0 mm 5 mps 672 mmHg 47%
    10:00 +28°C° 0 mm 6 mps 673 mmHg 40%
    11:00 +29°C° 0 mm 5 mps 672 mmHg 36%
    12:00 +30°C° 0 mm 4 mps 671 mmHg 32%
    13:00 +33°C° 0 mm 4 mps 671 mmHg 29%
    14:00 +33°C° 0 mm 4 mps 670 mmHg 28%
    15:00 +33°C° 0 mm 3 mps 670 mmHg 28%
    16:00 +31°C° 0 mm 3 mps 669 mmHg 28%
    17:00 +29°C° 0 mm 3 mps 669 mmHg 32%
    18:00 +27°C° 0 mm 3 mps 669 mmHg 37%
    19:00 +25°C° 0 mm 3 mps 669 mmHg 42%
    20:00 +24°C° 0 mm 3 mps 669 mmHg 43%
    21:00 +24°C° 0 mm 3 mps 670 mmHg 45%
    22:00 +22°C° 0 mm 3 mps 670 mmHg 46%
    23:00 +21°C° 0 mm 3 mps 670 mmHg 48%

    30 April, Sunday

    Time Temperature Precipitation Wind Pressure Humidity
    00:00 +21°C° 0 mm 3 mps 670 mmHg 51%
    01:00 +20°C° 0 mm 4 mps 670 mmHg 53%
    02:00 +20°C° 0 mm 4 mps 669 mmHg 55%
    03:00 +19°C° 0 mm 4 mps 669 mmHg 57%
    04:00 +19°C° 0 mm 3 mps 669 mmHg 59%
    05:00 +19°C° 0 mm 3 mps 670 mmHg 60%
    06:00 +18°C° 0 mm 3 mps 670 mmHg 61%
    07:00 +18°C° 0 mm 3 mps 671 mmHg 62%
    08:00 +21°C° 0 mm 4 mps 671 mmHg 53%
    09:00 +25°C° 0 mm 5 mps 672 mmHg 44%
    10:00 +28°C° 0 mm 5 mps 672 mmHg 36%
    11:00 +29°C° 0 mm 5 mps 672 mmHg 32%
    12:00 +30°C° 0 mm 4 mps 671 mmHg 28%
    13:00 +32°C° 0 mm 4 mps 670 mmHg 24%
    14:00 +32°C° 0 mm 4 mps 670 mmHg 24%
    15:00 +32°C° 0 mm 4 mps 670 mmHg 23%
    16:00 +32°C° 0 mm 4 mps 669 mmHg 23%
    17:00 +28°C° 0 mm 3 mps 669 mmHg 27%
    18:00 +26°C° 0 mm 3 mps 669 mmHg 32%
    19:00 +24°C° 0 mm 3 mps 669 mmHg 37%
    20:00 +22°C° 0 mm 3 mps 669 mmHg 39%
    21:00 +21°C° 0 mm 3 mps 670 mmHg 40%
    22:00 +20°C° 0 mm 3 mps 670 mmHg 42%
    23:00 +20°C° 0 mm 3 mps 670 mmHg 44%

    1 May, Monday

    Time Temperature Precipitation Wind Pressure Humidity
    00:00 +19°C° 0 mm 3 mps 669 mmHg 46%
    01:00 +19°C° 0 mm 3 mps 669 mmHg 48%
    02:00 +18°C° 0 mm 3 mps 669 mmHg 51%
    03:00 +17°C° 0 mm 3 mps 669 mmHg 54%
    04:00 +17°C° 0 mm 3 mps 669 mmHg 56%
    05:00 +17°C° 0 mm 3 mps 669 mmHg 57%
    06:00 +17°C° 0 mm 3 mps 670 mmHg 57%
    07:00 +17°C° 0 mm 3 mps 670 mmHg 58%
    08:00 +20°C° 0 mm 4 mps 671 mmHg 48%
    09:00 +23°C° 0 mm 5 mps 671 mmHg 39%
    10:00 +27°C° 0 mm 6 mps 672 mmHg 30%
    11:00 +28°C° 0 mm 5 mps 671 mmHg 27%
    12:00 +29°C° 0 mm 5 mps 671 mmHg 24%
    13:00 +30°C° 0 mm 4 mps 670 mmHg 21%
    14:00 +30°C° 0 mm 4 mps 669 mmHg 22%
    15:00 +30°C° 0 mm 4 mps 669 mmHg 22%
    16:00 +29°C° 0 mm 4 mps 669 mmHg 22%
    17:00 +27°C° 0 mm 3 mps 669 mmHg 27%
    18:00 +25°C° 0 mm 3 mps 669 mmHg 31%
    19:00 +21°C° 0 mm 3 mps 669 mmHg 36%
    20:00 +21°C° 0 mm 3 mps 669 mmHg 38%
    21:00 +20°C° 0 mm 3 mps 669 mmHg 40%
    22:00 +19°C° 0 mm 3 mps 669 mmHg 42%
    23:00 +19°C° 0 mm 3 mps 669 mmHg 45%
    Show more